User: anonymous
Location: Caltech
(34.1382°N, 118.1253°W)
Time: 02:33:07
(UTC-07:00)
Language:

GPS 2-04 Rocket1 - Orbit

View from above orbital plane
View from above orbital plane
View from above satellite
View from above satellite

Ground track
Ground track

The orbit data is extracted from the following two-line orbital elements,

1 20303U 89085B   14260.12083804  .00010898  00000-0  51476-3 0  8684
2 20303 035.6321 147.4028 0138752 355.8857 157.7832 15.10524039347796
Epoch (UTC): 17 September 2014 02:54:00
Eccentricity: 0.0138752
inclination: 35.6321°
perigee height: 438 km
apogee height: 630 km
right ascension of ascending node: 147.4028°
argument of perigee: 355.8857°
revolutions per day: 15.10524039
mean anomaly at epoch: 157.7832°
orbit number at epoch: 34779

The dashed part of the orbit path shows where the satellite is in the earth's shadow,  

DLR